Regional Weather Roundup
Issued by NWS

Home | Current Version | Previous Version | Text Only | Print | Product List | Glossary Off
Versions: 1 2 3 4 5 6 7 8 9 10 11 12 13 14 15 16 17 18 19 20 21 22 23 24 25 26 27 28 29 30 31 32 33 34 35 36 37 38 39 40 41 42 43 44 45 46 47 48 49 50

000
ASUS43 KBIS 031910
RWRND

NORTH DAKOTA REGIONAL WEATHER ROUNDUP
NATIONAL WEATHER SERVICE BISMARCK ND
200 PM CDT THU SEP 03 2015

NOTE: "FAIR" INDICATES FEW OR NO CLOUDS BELOW 12,000 FEET WITH NO
SIGNIFICANT WEATHER AND/OR OBSTRUCTIONS TO VISIBILITY.


NDZ001>003-009>011-017-032000-
NORTHWEST NORTH DAKOTA

CITY           SKY/WX    TMP DP  RH WIND       PRES   REMARKS
WILLISTON      SUNNY     87  57  35 N16G25    29.71F
MINOT          SUNNY     90  65  43 SE8       29.63S HX  92
$$

NDZ018>021-031>035-040>046-032000-
SOUTHWEST NORTH DAKOTA

CITY           SKY/WX    TMP DP  RH WIND       PRES   REMARKS
BISMARCK       MOSUNNY   94  61  33 S10       29.67F HX  94
DICKINSON      MOSUNNY   88  54  31 NW14      29.71S
GARRISON         N/A     90  62  39 S12       29.65S HX  90
HETTINGER ARPT MOSUNNY   91  43  18 W10       29.75S
$$

NDZ004>008-012>016-024-026-027-054-032000-
NORTHEAST NORTH DAKOTA

CITY           SKY/WX    TMP DP  RH WIND       PRES   REMARKS
GRAND FORKS    MOSUNNY   89  71  55 S24G33    29.72F HX  95
GRND FRKS AFB  SUNNY     89  72  58 S28G35    29.72F HX  95
DEVILS LAKE    SUNNY     84  68  58 SE15      29.69F
$$

NDZ022-023-025-028>030-036>039-047>053-032000-
SOUTHEAST NORTH DAKOTA

CITY           SKY/WX    TMP DP  RH WIND       PRES   REMARKS
FARGO          SUNNY     91  71  51 SE21G29   29.77S HX  97
JAMESTOWN      SUNNY     92  69  47 S17G24    29.72F HX  97
$$



USA.gov is the U.S. government's official web portal to all federal, state and local government web resources and services.